Location: Bühlhof
(48.7849°N, 8.6361°E)
Time: 21:12:23
(UTC+00:00)

NOAA 6 - Pass Details

Date: 19 January 2026
Orbit: 767 x 780 km, 98.6° (Epoch: 16 February)

Event Time Altitude Azimuth Distance (km) Brightness Sun altitude
Rises 18:16:30 0° 170° (S) 3,228 7.2 -21.6°
Reaches altitude 10° 18:18:48 10° 173° (S) 2,307 6.5 -22.0°
Maximum altitude 18:23:53 70° 257° (WSW) 822 4.2 -22.8°
Drops below altitude 10° 18:29:01 10° 341° (NNW) 2,333 6.7 -23.6°
Sets 18:31:21 0° 344° (NNW) 3,266 7.4 -24.0°
